Weather History for Gulkana, AK

Change the Weather History Date:

Friday, February 22, 2013

  Actual Average Record
Temperature  
Mean Temperature -3 °F -  
Max Temperature 10 °F 16 °F 42 °F (1970)
Min Temperature -16 °F -5 °F -33 °F (1992)
Degree Days  
Heating Degree Days 68    
Moisture  
Dew Point -4 °F    
Average Humidity 80    
Maximum Humidity 88    
Minimum Humidity 62    
Precipitation  
Precipitation 0.00 in - - ()
Snow  
Snow 0.00 in - - ()
Snow Depth 10.00 in    
Sea Level Pressure  
Sea Level Pressure 29.37 in    
Wind  
Wind Speed 2 mph (North)    
Max Wind Speed 7 mph    
Max Gust Speed -    
Visibility 10 miles    
Events Snow    
Averages and records for this station are not official NWS values.
T = Trace of Precipitation, MM = Missing Value Source: NWS Daily Summary

Daily Weather History Graph

Daily Weather History Graph

Search for Another Location

Airport:

Trip Planner

Search our weather history database for the weather conditions in past years. The results will help you decide how hot, cold, wet, or windy it might be!

Date:

Astronomy

Feb. 22, 2013 Rise Set
Actual Time 8:05 AM AKST 5:46 PM AKST
Civil Twilight 7:19 AM AKST 6:32 PM AKST
Nautical Twilight 6:27 AM AKST 7:24 PM AKST
Astronomical Twilight 5:36 AM AKST 8:16 PM AKST
Moon 2:32 PM AKST (2/22) 6:35 AM AKST (2/22)
Length of Visible Light 11h 12m
Length of Day
9h 41m
Waxing Gibbous, 91% of the Moon is Illuminated
Feb 22
Waxing Gibbous
Feb 25
Full
Mar 4
Last Quarter
Mar 11
New
Mar 19
First Quarter

Hourly Weather History & Observations

Time (AKST) Temp. Windchill Dew Point Humidity Pressure Visibility Wind Dir Wind Speed Gust Speed Precip Events Conditions
12:53 AM -8.0 °F - -11.9 °F 83% 29.29 in 10.0 mi Calm Calm - N/A   Overcast
1:53 AM -8.0 °F -19.2 °F -11.9 °F 83% 29.30 in 10.0 mi West 4.6 mph - N/A   Mostly Cloudy
3:53 AM -11.0 °F -24.6 °F -14.1 °F 86% 29.30 in 10.0 mi NNW 5.8 mph - N/A   Scattered Clouds
4:02 AM -11.0 °F -22.8 °F -15.0 °F 83% 29.13 in 10.0 mi NW 4.6 mph - N/A   Mostly Cloudy
4:13 AM -11.9 °F -21.5 °F -16.1 °F 82% 29.13 in 10.0 mi NNW 3.5 mph - N/A   Overcast
4:35 AM -9.0 °F - -13.0 °F 83% 29.13 in 10.0 mi Calm Calm - N/A   Scattered Clouds
4:53 AM -9.9 °F -19.2 °F -15.0 °F 78% 29.30 in 10.0 mi NNW 3.5 mph - N/A   Clear
5:53 AM -11.9 °F - -16.1 °F 82% 29.33 in 10.0 mi Calm Calm - N/A   Clear
6:02 AM -14.1 °F - -18.0 °F 82% 29.15 in 10.0 mi Calm Calm - N/A   Scattered Clouds
6:53 AM -9.0 °F -18.2 °F -13.0 °F 83% 29.34 in 10.0 mi NW 3.5 mph - N/A   Overcast
7:24 AM -6.0 °F -16.9 °F -9.9 °F 83% 29.17 in 10.0 mi NNW 4.6 mph - N/A   Overcast
7:53 AM -4.0 °F - -8.0 °F 83% 29.35 in 10.0 mi Calm Calm - N/A   Overcast
8:53 AM -2.0 °F -10.1 °F -7.1 °F 79% 29.37 in 10.0 mi NNE 3.5 mph - 0.00 in Snow Light Snow
9:53 AM -0.9 °F -11.0 °F -6.0 °F 79% 29.39 in 10.0 mi NNE 4.6 mph - 0.00 in   Overcast
10:53 AM 3.0 °F -4.4 °F -2.9 °F 76% 29.40 in 10.0 mi North 3.5 mph - N/A   Overcast
11:53 AM 6.1 °F -0.9 °F -0.9 °F 73% 29.41 in 10.0 mi NNE 3.5 mph - 0.00 in Snow Light Snow
12:53 PM 7.0 °F - -0.0 °F 73% 29.42 in 10.0 mi Calm Calm - 0.00 in Snow Light Snow
1:53 PM 9.0 °F - 1.9 °F 73% 29.44 in 10.0 mi Calm Calm - 0.00 in Snow Light Snow
2:53 PM 10.0 °F - 3.0 °F 73% 29.45 in 7.0 mi Calm Calm - 0.00 in Snow Light Snow
3:53 PM 10.9 °F 4.7 °F 5.0 °F 77% 29.46 in 3.0 mi East 3.5 mph - 0.00 in Snow Light Snow
4:53 PM 10.9 °F - 6.1 °F 81% 29.48 in 7.0 mi Calm Calm - 0.00 in   Overcast
5:53 PM 10.0 °F - 6.1 °F 84% 29.49 in 10.0 mi Calm Calm - N/A   Overcast
6:53 PM 9.0 °F - 5.0 °F 84% 29.52 in 10.0 mi Calm Calm - N/A   Overcast
7:53 PM 9.0 °F - 5.0 °F 84% 29.52 in 10.0 mi Calm Calm - N/A   Overcast
8:53 PM 9.0 °F - 6.1 °F 88% 29.52 in 10.0 mi Calm Calm - N/A   Overcast
9:26 PM 8.1 °F - 5.0 °F 87% 29.35 in 10.0 mi Calm Calm - N/A   Overcast
9:53 PM 9.0 °F - 6.1 °F 88% 29.53 in 10.0 mi Calm Calm - N/A   Overcast
10:53 PM 9.0 °F - 5.0 °F 84% 29.53 in 10.0 mi Calm Calm - N/A   Overcast
11:53 PM 8.1 °F -3.2 °F 3.9 °F 83% 29.52 in 10.0 mi NNE 6.9 mph - N/A   Overcast